Time,TemperatureF,DewpointF,PressureIn,WindDirection,WindDirectionDegrees,WindSpeedMPH,WindSpeedGustMPH,Humidity,HourlyPrecipIn,Conditions,Clouds,dailyrainin,SolarRadiationWatts/m^2,SoftwareType,DateUTC
2013-02-09 00:21:00,23.0,15.0,-100.00,ENE,66,2.0,5.0,70,0.00,,,0.00,1.000000,,2013-02-09 08:21:00,
2013-02-09 00:31:00,23.0,15.0,-100.00,ENE,66,2.0,5.0,70,0.00,,,0.00,1.000000,,2013-02-09 08:31:00,
2013-02-09 00:41:00,23.0,15.0,-100.00,ENE,66,2.0,5.0,70,0.00,,,0.00,1.000000,,2013-02-09 08:41:00,
2013-02-09 00:52:00,23.0,15.0,-100.00,ENE,66,2.0,5.0,70,0.00,,,0.00,1.000000,,2013-02-09 08:52:00,
2013-02-09 02:21:00,19.0,14.0,-100.00,ENE,73,5.0,7.0,82,-99.99,,,0.00,1.000000,,2013-02-09 10:21:00,
2013-02-09 02:31:00,19.0,14.0,-100.00,ENE,73,5.0,7.0,82,-99.99,,,0.00,1.000000,,2013-02-09 10:31:00,
2013-02-09 02:41:00,19.0,14.0,-100.00,ENE,73,5.0,7.0,82,-99.99,,,0.00,1.000000,,2013-02-09 10:41:00,
2013-02-09 02:51:00,19.0,14.0,-100.00,ENE,73,5.0,7.0,82,-99.99,,,0.00,1.000000,,2013-02-09 10:51:00,
2013-02-09 03:21:00,18.0,14.0,-100.00,ENE,63,4.0,7.0,83,0.00,,,0.00,1.000000,,2013-02-09 11:21:00,
2013-02-09 03:31:00,18.0,14.0,-100.00,ENE,63,4.0,7.0,83,0.00,,,0.00,1.000000,,2013-02-09 11:31:00,
2013-02-09 03:41:00,18.0,14.0,-100.00,ENE,63,4.0,7.0,83,0.00,,,0.00,1.000000,,2013-02-09 11:41:00,
2013-02-09 03:52:00,18.0,14.0,-100.00,ENE,63,4.0,7.0,83,0.00,,,0.00,1.000000,,2013-02-09 11:52:00,
2013-02-09 04:21:00,17.0,13.0,-100.00,ENE,64,4.0,7.0,83,0.00,,,0.00,1.000000,,2013-02-09 12:21:00,
2013-02-09 04:32:00,17.0,13.0,-100.00,ENE,64,4.0,7.0,83,0.00,,,0.00,1.000000,,2013-02-09 12:32:00,
2013-02-09 04:42:00,17.0,13.0,-100.00,ENE,64,4.0,7.0,83,0.00,,,0.00,1.000000,,2013-02-09 12:42:00,
2013-02-09 04:52:00,17.0,13.0,-100.00,ENE,64,4.0,7.0,83,0.00,,,0.00,1.000000,,2013-02-09 12:52:00,
2013-02-09 05:21:00,16.0,12.0,-100.00,ENE,77,3.0,5.0,83,0.00,,,0.00,1.000000,,2013-02-09 13:21:00,
2013-02-09 05:32:00,16.0,12.0,-100.00,ENE,77,3.0,5.0,83,0.00,,,0.00,1.000000,,2013-02-09 13:32:00,
2013-02-09 05:42:00,16.0,12.0,-100.00,ENE,77,3.0,5.0,83,0.00,,,0.00,1.000000,,2013-02-09 13:42:00,
2013-02-09 05:51:00,16.0,12.0,-100.00,ENE,77,3.0,5.0,83,0.00,,,0.00,1.000000,,2013-02-09 13:51:00,
2013-02-09 06:21:00,15.0,12.0,-100.00,ENE,67,5.0,6.0,86,0.00,,,0.00,1.000000,,2013-02-09 14:21:00,
2013-02-09 06:31:00,15.0,12.0,-100.00,ENE,67,5.0,6.0,86,0.00,,,0.00,1.000000,,2013-02-09 14:31:00,
2013-02-09 06:41:00,15.0,12.0,-100.00,ENE,67,5.0,6.0,86,0.00,,,0.00,1.000000,,2013-02-09 14:41:00,
2013-02-09 06:52:00,15.0,12.0,-100.00,ENE,67,5.0,6.0,86,0.00,,,0.00,1.000000,,2013-02-09 14:52:00,
2013-02-09 07:21:00,14.0,11.0,-100.00,East,79,4.0,7.0,86,0.00,,,0.00,1.000000,,2013-02-09 15:21:00,
2013-02-09 07:31:00,14.0,11.0,-100.00,East,79,4.0,7.0,86,0.00,,,0.00,1.000000,,2013-02-09 15:31:00,
2013-02-09 07:41:00,14.0,11.0,-100.00,East,79,4.0,7.0,86,0.00,,,0.00,1.000000,,2013-02-09 15:41:00,
2013-02-09 07:51:00,14.0,11.0,-100.00,East,79,4.0,7.0,86,0.00,,,0.00,1.000000,,2013-02-09 15:51:00,
2013-02-09 08:22:00,17.0,12.0,-100.00,East,83,4.0,7.0,82,0.00,,,0.00,20.000000,,2013-02-09 16:22:00,
2013-02-09 08:31:00,17.0,12.0,-100.00,East,83,4.0,7.0,82,0.00,,,0.00,20.000000,,2013-02-09 16:31:00,
2013-02-09 08:41:00,17.0,12.0,-100.00,East,83,4.0,7.0,82,0.00,,,0.00,20.000000,,2013-02-09 16:41:00,
2013-02-09 08:51:00,17.0,12.0,-100.00,East,83,4.0,7.0,82,0.00,,,0.00,20.000000,,2013-02-09 16:51:00,
2013-02-09 09:21:00,24.0,14.0,-100.00,ENE,77,3.0,6.0,66,0.00,,,0.00,159.000000,,2013-02-09 17:21:00,
2013-02-09 09:32:00,24.0,14.0,-100.00,ENE,77,3.0,6.0,66,0.00,,,0.00,159.000000,,2013-02-09 17:32:00,
2013-02-09 09:41:00,24.0,14.0,-100.00,ENE,77,3.0,6.0,66,0.00,,,0.00,159.000000,,2013-02-09 17:41:00,
2013-02-09 09:52:00,24.0,14.0,-100.00,ENE,77,3.0,6.0,66,0.00,,,0.00,159.000000,,2013-02-09 17:52:00,
2013-02-09 10:23:00,29.0,15.0,-100.00,ENE,57,3.0,7.0,56,0.00,,,0.00,293.000000,,2013-02-09 18:23:00,
2013-02-09 10:31:00,29.0,15.0,-100.00,ENE,57,3.0,7.0,56,0.00,,,0.00,293.000000,,2013-02-09 18:31:00,
2013-02-09 10:41:00,29.0,15.0,-100.00,ENE,57,3.0,7.0,56,0.00,,,0.00,293.000000,,2013-02-09 18:41:00,
2013-02-09 10:51:00,29.0,15.0,-100.00,ENE,57,3.0,7.0,56,0.00,,,0.00,293.000000,,2013-02-09 18:51:00,
2013-02-09 11:22:00,33.0,16.0,-100.00,NE,34,5.0,9.0,49,0.00,,,0.00,248.000000,,2013-02-09 19:22:00,
2013-02-09 11:31:00,33.0,16.0,-100.00,NE,34,5.0,9.0,49,0.00,,,0.00,248.000000,,2013-02-09 19:31:00,
2013-02-09 11:41:00,33.0,16.0,-100.00,NE,34,5.0,9.0,49,0.00,,,0.00,248.000000,,2013-02-09 19:41:00,
2013-02-09 11:52:00,33.0,16.0,-100.00,NE,34,5.0,9.0,49,0.00,,,0.00,248.000000,,2013-02-09 19:52:00,
2013-02-09 12:21:00,39.0,18.0,-100.00,North,3,5.0,8.0,42,0.00,,,-99.99,539.000000,,2013-02-09 20:21:00,
2013-02-09 12:31:00,39.0,18.0,-100.00,North,3,5.0,8.0,42,0.00,,,-99.99,539.000000,,2013-02-09 20:31:00,
2013-02-09 12:41:00,39.0,18.0,-100.00,North,3,5.0,8.0,42,0.00,,,-99.99,539.000000,,2013-02-09 20:41:00,
2013-02-09 12:52:00,39.0,18.0,-100.00,North,3,5.0,8.0,42,0.00,,,-99.99,539.000000,,2013-02-09 20:52:00,
2013-02-09 13:21:00,38.0,17.0,-100.00,WNW,303,6.0,9.0,42,0.00,,,0.00,579.000000,,2013-02-09 21:21:00,
2013-02-09 13:31:00,38.0,17.0,-100.00,WNW,303,6.0,9.0,42,0.00,,,0.00,579.000000,,2013-02-09 21:31:00,
2013-02-09 13:41:00,38.0,17.0,-100.00,WNW,303,6.0,9.0,42,0.00,,,0.00,579.000000,,2013-02-09 21:41:00,
2013-02-09 13:52:00,38.0,17.0,-100.00,WNW,303,6.0,9.0,42,0.00,,,0.00,579.000000,,2013-02-09 21:52:00,
2013-02-09 14:21:00,42.0,19.0,-100.00,West,274,6.0,9.0,40,0.00,,,0.00,526.000000,,2013-02-09 22:21:00,
2013-02-09 14:31:00,42.0,19.0,-100.00,West,274,6.0,9.0,40,0.00,,,0.00,526.000000,,2013-02-09 22:31:00,
2013-02-09 14:41:00,42.0,19.0,-100.00,West,274,6.0,9.0,40,0.00,,,0.00,526.000000,,2013-02-09 22:41:00,
2013-02-09 14:51:00,42.0,19.0,-100.00,West,274,6.0,9.0,40,0.00,,,0.00,526.000000,,2013-02-09 22:51:00,
2013-02-09 15:21:00,43.0,20.0,-100.00,WSW,244,5.0,8.0,40,0.00,,,0.00,447.000000,,2013-02-09 23:21:00,
2013-02-09 15:31:00,43.0,20.0,-100.00,WSW,244,5.0,8.0,40,0.00,,,0.00,447.000000,,2013-02-09 23:31:00,
2013-02-09 15:41:00,43.0,20.0,-100.00,WSW,244,5.0,8.0,40,0.00,,,0.00,447.000000,,2013-02-09 23:41:00,
2013-02-09 15:52:00,43.0,20.0,-100.00,WSW,244,5.0,8.0,40,0.00,,,0.00,447.000000,,2013-02-09 23:52:00,
2013-02-09 16:21:00,41.0,20.0,-100.00,WSW,251,6.0,9.0,42,0.00,,,0.00,304.000000,,2013-02-10 00:21:00,
2013-02-09 16:32:00,41.0,20.0,-100.00,WSW,251,6.0,9.0,42,0.00,,,0.00,304.000000,,2013-02-10 00:32:00,
2013-02-09 16:41:00,41.0,20.0,-100.00,WSW,251,6.0,9.0,42,0.00,,,0.00,304.000000,,2013-02-10 00:41:00,
2013-02-09 16:51:00,41.0,20.0,-100.00,WSW,251,6.0,9.0,42,0.00,,,0.00,304.000000,,2013-02-10 00:51:00,
2013-02-09 17:21:00,38.0,21.0,-100.00,West,276,3.0,9.0,49,0.00,,,0.00,138.000000,,2013-02-10 01:21:00,
2013-02-09 17:31:00,38.0,21.0,-100.00,West,276,3.0,9.0,49,0.00,,,0.00,138.000000,,2013-02-10 01:31:00,
2013-02-09 17:41:00,38.0,21.0,-100.00,West,276,3.0,9.0,49,0.00,,,0.00,138.000000,,2013-02-10 01:41:00,
2013-02-09 17:51:00,38.0,21.0,-100.00,West,276,3.0,9.0,49,0.00,,,0.00,138.000000,,2013-02-10 01:51:00,
2013-02-09 18:22:00,35.0,24.0,-100.00,NW,313,8.0,12.0,63,0.00,,,0.00,18.000000,,2013-02-10 02:22:00,
2013-02-09 18:31:00,35.0,24.0,-100.00,NW,313,8.0,12.0,63,0.00,,,0.00,18.000000,,2013-02-10 02:31:00,
2013-02-09 18:41:00,35.0,24.0,-100.00,NW,313,8.0,12.0,63,0.00,,,0.00,18.000000,,2013-02-10 02:41:00,
2013-02-09 18:52:00,35.0,24.0,-100.00,NW,313,8.0,12.0,63,0.00,,,0.00,18.000000,,2013-02-10 02:52:00,
2013-02-09 19:21:00,34.0,25.0,-100.00,NNE,14,5.0,11.0,69,0.00,,,0.00,1.000000,,2013-02-10 03:21:00,
2013-02-09 19:32:00,34.0,25.0,-100.00,NNE,14,5.0,11.0,69,0.00,,,0.00,1.000000,,2013-02-10 03:32:00,
2013-02-09 19:41:00,34.0,25.0,-100.00,NNE,14,5.0,11.0,69,0.00,,,0.00,1.000000,,2013-02-10 03:41:00,
2013-02-09 19:51:00,34.0,25.0,-100.00,NNE,14,5.0,11.0,69,0.00,,,0.00,1.000000,,2013-02-10 03:51:00,
2013-02-09 20:21:00,31.0,24.0,-100.00,NNE,22,1.0,5.0,75,0.00,,,0.00,1.000000,,2013-02-10 04:21:00,
2013-02-09 20:32:00,31.0,24.0,-100.00,NNE,22,1.0,5.0,75,0.00,,,0.00,1.000000,,2013-02-10 04:32:00,
2013-02-09 20:41:00,31.0,24.0,-100.00,NNE,22,1.0,5.0,75,0.00,,,0.00,1.000000,,2013-02-10 04:41:00,
2013-02-09 20:51:00,31.0,24.0,-100.00,NNE,22,1.0,5.0,75,0.00,,,0.00,1.000000,,2013-02-10 04:51:00,
2013-02-09 21:22:00,28.0,24.0,-100.00,SE,125,2.0,4.0,84,0.00,,,0.00,1.000000,,2013-02-10 05:22:00,
2013-02-09 21:31:00,28.0,24.0,-100.00,SE,125,2.0,4.0,84,0.00,,,0.00,1.000000,,2013-02-10 05:31:00,
2013-02-09 21:41:00,28.0,24.0,-100.00,SE,125,2.0,4.0,84,0.00,,,0.00,1.000000,,2013-02-10 05:41:00,
2013-02-09 21:52:00,28.0,24.0,-100.00,SE,125,2.0,4.0,84,0.00,,,0.00,1.000000,,2013-02-10 05:52:00,
2013-02-09 22:21:00,27.0,23.0,-100.00,East,85,1.0,5.0,86,0.00,,,0.00,1.000000,,2013-02-10 06:21:00,
2013-02-09 22:32:00,27.0,23.0,-100.00,East,85,1.0,5.0,86,0.00,,,0.00,1.000000,,2013-02-10 06:32:00,
2013-02-09 22:42:00,27.0,23.0,-100.00,East,85,1.0,5.0,86,0.00,,,0.00,1.000000,,2013-02-10 06:42:00,
2013-02-09 22:51:00,27.0,23.0,-100.00,East,85,1.0,5.0,86,0.00,,,0.00,1.000000,,2013-02-10 06:51:00,
2013-02-09 23:21:00,25.0,22.0,-100.00,East,92,3.0,5.0,87,0.00,,,0.00,1.000000,,2013-02-10 07:21:00,
2013-02-09 23:31:00,25.0,22.0,-100.00,East,92,3.0,5.0,87,0.00,,,0.00,1.000000,,2013-02-10 07:31:00,
2013-02-09 23:41:00,25.0,22.0,-100.00,East,92,3.0,5.0,87,0.00,,,0.00,1.000000,,2013-02-10 07:41:00,
2013-02-09 23:51:00,25.0,22.0,-100.00,East,92,3.0,5.0,87,0.00,,,0.00,1.000000,,2013-02-10 07:51:00,